Palestine, IL

3:39 PM CST on December 09, 2016 (GMT -0600)
Robinson Municipal

Weather History for KRSV - November, 2012

Change the Weather History Date:

Wednesday, November 21, 2012

  Actual Average (KLWV) Record (KLWV)
Temperature  
Mean Temperature 50 °F -  
Max Temperature 64 °F 50 °F 71 °F (1992)
Min Temperature 36 °F 33 °F 16 °F (2014)
Degree Days  
Heating Degree Days 14    
Moisture  
Dew Point 45 °F    
Average Humidity 88    
Maximum Humidity 100    
Minimum Humidity 53    
Precipitation  
Precipitation 0.00 in - - ()
Sea Level Pressure  
Sea Level Pressure 30.23 in    
Wind  
Wind Speed 0 mph (NW)    
Max Wind Speed 5 mph    
Max Gust Speed -    
Visibility 5 miles    
Events Fog    
Averages and records for this station are not official NWS values.
T = Trace of Precipitation, MM = Missing Value Source: NWS Daily Summary

Daily Weather History Graph

Daily Weather History Graph

Search for Another Location

Airport or City:

Trip Planner

Search our weather history database for the weather conditions in past years. The results will help you decide how hot, cold, wet, or windy it might be!

Date:

Astronomy

Nov. 21, 2012 Rise Set
Actual Time 6:40 AM CST 4:32 PM CST
Civil Twilight 6:11 AM CST 5:01 PM CST
Nautical Twilight 5:39 AM CST 5:33 PM CST
Astronomical Twilight 5:07 AM CST 6:05 PM CST
Moon 12:45 PM CST (11/21) 12:02 AM CST (11/21)
Length of Visible Light 10h 49m
Length of Day
9h 51m
First Quarter, 62% of the Moon is Illuminated
Nov 21
First Quarter
Nov 28
Full
Dec 6
Last Quarter
Dec 13
New
Dec 19
First Quarter

Hourly Weather History & Observations

Time (CST) Temp. Dew Point Humidity Pressure Visibility Wind Dir Wind Speed Gust Speed Precip Events Conditions
12:15 AM 49.3 °F 48.0 °F 95% 30.18 in 10.0 mi Calm Calm - N/A   Mostly Cloudy
12:35 AM 46.8 °F 46.0 °F 97% 30.18 in 7.0 mi Calm Calm - N/A   Mostly Cloudy
12:55 AM 45.5 °F 45.5 °F 100% 30.17 in 7.0 mi Calm Calm - N/A   Overcast
1:15 AM 45.7 °F 45.5 °F 99% 30.18 in 7.0 mi Calm Calm - N/A   Mostly Cloudy
1:35 AM 45.5 °F 45.5 °F 100% 30.18 in 5.0 mi Calm Calm - N/A   Mostly Cloudy
1:55 AM 45.3 °F 45.3 °F 100% 30.19 in 7.0 mi Calm Calm - N/A   Overcast
2:15 AM 46.4 °F 46.4 °F 100% 30.19 in 7.0 mi Calm Calm - N/A   Overcast
2:35 AM 47.7 °F 47.7 °F 100% 30.19 in 7.0 mi Calm Calm - N/A   Overcast
2:55 AM 48.2 °F 48.2 °F 100% 30.20 in 5.0 mi Calm Calm - N/A   Overcast
3:15 AM 48.9 °F 48.7 °F 99% 30.20 in 5.0 mi Calm Calm - N/A   Overcast
3:35 AM 49.1 °F 49.1 °F 100% 30.21 in 5.0 mi Calm Calm - N/A   Overcast
3:55 AM 49.5 °F 49.3 °F 99% 30.21 in 5.0 mi NW 3.5 mph - N/A   Overcast
4:15 AM 49.5 °F 49.1 °F 99% 30.22 in 5.0 mi NW 3.5 mph - N/A   Mostly Cloudy
4:35 AM 45.5 °F 45.5 °F 100% 30.22 in 3.0 mi Calm Calm - N/A   Mist
4:55 AM 45.9 °F 45.9 °F 100% 30.22 in 3.0 mi Calm Calm - N/A   Clear
5:15 AM 44.6 °F 44.6 °F 100% 30.23 in 2.0 mi Calm Calm - N/A   Clear
5:35 AM 43.0 °F 43.0 °F 100% 30.23 in 1.5 mi Calm Calm - N/A   Mist
5:55 AM 42.1 °F 42.1 °F 100% 30.23 in 1.5 mi Calm Calm - N/A   Mist
6:15 AM 40.3 °F 40.3 °F 100% 30.23 in 0.5 mi Calm Calm - N/A Fog Fog
6:35 AM 38.3 °F 38.3 °F 100% 30.24 in 0.2 mi Calm Calm - N/A Fog Fog
6:55 AM 38.3 °F 38.3 °F 100% 30.25 in 0.2 mi Calm Calm - N/A Fog Fog
7:15 AM 38.8 °F 38.8 °F 100% 30.26 in 0.2 mi Calm Calm - N/A Fog Fog
7:35 AM 40.1 °F 40.1 °F 100% 30.26 in 0.2 mi Calm Calm - N/A Fog Fog
7:55 AM 42.3 °F 42.3 °F 100% 30.26 in 0.2 mi Calm Calm - N/A Fog Fog
8:15 AM 44.8 °F 44.8 °F 100% 30.27 in 0.2 mi Calm Calm - N/A Fog Fog
8:35 AM 47.5 °F 47.5 °F 100% 30.27 in 0.5 mi Calm Calm - N/A Fog Fog
8:55 AM 49.6 °F 49.6 °F 100% 30.27 in 2.5 mi Calm Calm - N/A   Clear
9:15 AM 51.1 °F 51.1 °F 100% 30.29 in 3.0 mi Calm Calm - N/A   Clear
9:35 AM 52.9 °F 52.0 °F 97% 30.29 in 4.0 mi Calm Calm - N/A   Clear
9:55 AM 55.2 °F 50.7 °F 85% 30.29 in 4.0 mi Calm Calm - N/A   Clear
10:15 AM 57.0 °F 49.6 °F 76% 30.29 in 5.0 mi Calm Calm - N/A   Haze
10:35 AM 57.9 °F 48.4 °F 71% 30.29 in 5.0 mi Calm Calm - N/A   Haze
10:55 AM 59.0 °F 48.0 °F 67% 30.27 in 5.0 mi Calm Calm - N/A   Haze
11:15 AM 59.9 °F 47.8 °F 64% 30.27 in 7.0 mi NW 4.6 mph - N/A   Clear
11:35 AM 60.6 °F 47.5 °F 62% 30.27 in 7.0 mi Calm Calm - N/A   Clear
11:55 AM 61.2 °F 47.1 °F 60% 30.26 in 7.0 mi Calm Calm - N/A   Clear
12:15 PM 61.9 °F 47.1 °F 58% 30.25 in 7.0 mi NNW 3.5 mph - N/A   Clear
12:35 PM 61.9 °F 47.3 °F 59% 30.24 in 7.0 mi Calm Calm - N/A   Clear
12:55 PM 63.0 °F 47.3 °F 57% 30.24 in 7.0 mi Calm Calm - N/A   Clear
1:15 PM 63.1 °F 46.6 °F 55% 30.23 in 7.0 mi Calm Calm - N/A   Clear
1:35 PM 63.1 °F 46.4 °F 54% 30.23 in 10.0 mi North 3.5 mph - N/A   Clear
2:15 PM 63.5 °F 46.8 °F 54% 30.22 in 7.0 mi Calm Calm - N/A   Clear
2:35 PM 64.0 °F 47.1 °F 54% 30.22 in 10.0 mi Calm Calm - N/A   Clear
2:55 PM 63.9 °F 46.2 °F 53% 30.22 in 10.0 mi Calm Calm - N/A   Clear
3:15 PM 62.8 °F 46.4 °F 55% 30.22 in 10.0 mi Calm Calm - N/A   Clear
3:35 PM 62.8 °F 46.0 °F 54% 30.21 in 10.0 mi Calm Calm - N/A   Clear
3:55 PM 61.9 °F 46.4 °F 57% 30.21 in 10.0 mi Calm Calm - N/A   Clear
4:15 PM 60.4 °F 45.9 °F 59% 30.21 in 10.0 mi Calm Calm - N/A   Clear
4:35 PM 57.2 °F 46.0 °F 66% 30.21 in 7.0 mi Calm Calm - N/A   Clear
4:55 PM 53.4 °F 45.5 °F 75% 30.21 in 10.0 mi Calm Calm - N/A   Clear
5:15 PM 48.4 °F 42.6 °F 80% 30.21 in 7.0 mi Calm Calm - N/A   Clear
5:35 PM 47.5 °F 44.8 °F 90% 30.21 in 7.0 mi Calm Calm - N/A   Clear
5:55 PM 47.8 °F 44.2 °F 87% 30.22 in 7.0 mi Calm Calm - N/A   Clear
6:15 PM 45.9 °F 43.3 °F 91% 30.21 in 5.0 mi Calm Calm - N/A   Clear
6:35 PM 44.8 °F 43.2 °F 94% 30.21 in 7.0 mi Calm Calm - N/A   Clear
6:55 PM 43.9 °F 43.5 °F 99% 30.21 in 5.0 mi Calm Calm - N/A   Clear
7:15 PM 43.9 °F 43.7 °F 99% 30.21 in 5.0 mi Calm Calm - N/A   Clear
7:35 PM 43.2 °F 43.2 °F 100% 30.21 in 5.0 mi Calm Calm - N/A   Clear
7:55 PM 42.8 °F 42.8 °F 100% 30.21 in 5.0 mi Calm Calm - N/A   Clear
8:15 PM 42.1 °F 42.1 °F 100% 30.20 in 4.0 mi Calm Calm - N/A   Clear
8:35 PM 41.2 °F 41.2 °F 100% 30.21 in 3.0 mi Calm Calm - N/A   Clear
8:55 PM 41.4 °F 41.4 °F 100% 30.21 in 2.5 mi Calm Calm - N/A   Clear
9:15 PM 39.6 °F 39.6 °F 100% 30.21 in 2.0 mi Calm Calm - N/A   Clear
9:35 PM 39.2 °F 39.2 °F 100% 30.21 in 4.0 mi Calm Calm - N/A   Clear
9:55 PM 38.1 °F 38.1 °F 100% 30.21 in 5.0 mi Calm Calm - N/A   Clear
10:15 PM 38.8 °F 38.8 °F 100% 30.21 in 3.0 mi Calm Calm - N/A   Clear
10:35 PM 39.0 °F 39.0 °F 100% 30.21 in 1.8 mi Calm Calm - N/A   Mist
10:55 PM 37.8 °F 37.8 °F 100% 30.21 in 2.0 mi Calm Calm - N/A   Clear
11:15 PM 37.6 °F 37.6 °F 100% 30.21 in 2.0 mi Calm Calm - N/A   Clear
11:35 PM 38.1 °F 38.1 °F 100% 30.21 in 2.0 mi Calm Calm - N/A   Clear
11:55 PM 36.7 °F 36.7 °F 100% 30.20 in 4.0 mi Calm Calm - N/A   Clear